Date String (YYYY-MM-DD hh:mm:ss) UTC,Instrument flags,Ambient pressure (hPa),Sample flow (lpm),Bypass flow (lpm),Sample temperature (°C),Ambient temperature (°C),ASC tube jacket temperature (°C),LED temperature (°C),Box temperature (°C),Sample RH (%),Span deviation,Mass concentration (μg/m³),Mass concentration (μg/m³),Mass concentration (μg/m³)
DateTimeUTC,F1_M11,P_M11,Q1_M11,Q2_M11,T1_M11,T2_M11,T3_M11,T4_M11,T5_M11,U1_M11,ZSPAN_M11,X2_M11,X0_M11,X1_M11
2022-01-14 23:00:00,,0831.4,4.99,0.00,20.8,20.2,00.0,30.1,22.3,17.8,0000.0,0002.03,0007.36,0001.72
2022-01-14 23:01:00,,0831.4,5.01,0.00,20.7,20.1,00.0,30.1,22.3,17.8,0000.0,0002.04,0007.37,0001.73
2022-01-14 23:02:00,,0831.4,4.99,0.00,20.8,20.6,00.0,30.1,22.4,17.8,0000.0,0002.01,0007.27,0001.73
2022-01-14 23:03:00,,0831.5,5.01,0.00,21.0,21.6,00.0,30.1,22.8,17.6,0000.0,0002.01,0006.87,0001.73
2022-01-14 23:04:00,,0831.5,4.98,0.00,21.2,22.5,00.0,30.1,23.2,17.3,0000.0,0001.99,0006.84,0001.72
2022-01-14 23:05:00,,0831.6,5.01,0.00,21.3,22.4,00.0,30.2,23.3,17.2,0000.0,0002.01,0007.62,0001.73
2022-01-14 23:06:00,,0831.6,4.99,0.00,21.3,22.1,00.0,30.2,23.3,17.2,0000.0,0002.02,0007.57,0001.73
2022-01-14 23:07:00,,0831.6,5.00,0.00,21.4,21.9,00.0,30.2,23.2,17.1,0000.0,0002.03,0007.00,0001.73
2022-01-14 23:08:00,,0831.6,5.00,0.00,21.4,21.8,00.0,30.3,23.3,17.0,0000.0,0002.06,0005.60,0001.72
2022-01-14 23:09:00,,0831.6,5.00,0.00,21.4,21.7,00.0,30.3,23.3,17.0,0000.0,0002.09,0005.41,0001.71
2022-01-14 23:10:00,,0831.7,5.00,0.00,21.4,21.6,00.0,30.3,23.3,17.0,0000.0,0002.09,0005.04,0001.70
2022-01-14 23:11:00,,0831.6,5.00,0.00,21.4,21.5,00.0,30.3,23.2,16.9,0000.0,0002.08,0004.46,0001.68
2022-01-14 23:12:00,,0831.6,5.00,0.00,21.5,21.4,00.0,30.3,23.3,16.8,0000.0,0002.05,0004.39,0001.66
2022-01-14 23:13:00,,0831.6,5.00,0.00,21.5,21.3,00.0,30.4,23.2,16.9,0000.0,0002.04,0004.37,0001.65
2022-01-14 23:14:00,,0831.6,5.00,0.00,21.4,21.2,00.0,30.4,23.1,16.8,0000.0,0001.99,0004.29,0001.63
2022-01-14 23:15:00,,0831.5,5.02,0.00,21.4,21.0,00.0,30.4,23.0,16.5,0000.0,0001.98,0004.35,0001.61
2022-01-14 23:16:00,,0831.5,5.00,0.00,21.3,20.9,00.0,30.4,22.9,15.5,0000.0,0001.93,0003.58,0001.56
2022-01-14 23:17:00,,0831.6,4.99,0.00,21.3,20.8,00.0,30.3,22.9,16.0,0000.0,0001.89,0003.26,0001.52
2022-01-14 23:18:00,,0831.6,4.99,0.00,21.2,20.7,00.0,30.3,22.8,16.2,0000.0,0001.90,0003.32,0001.49
2022-01-14 23:19:00,,0831.6,5.02,0.00,21.2,20.6,00.0,30.3,22.8,16.5,0000.0,0001.90,0003.31,0001.47
2022-01-14 23:20:00,,0831.6,4.98,0.00,21.2,20.7,00.0,30.3,22.9,16.4,0000.0,0001.87,0003.41,0001.45
2022-01-14 23:21:00,,0831.6,5.00,0.00,21.2,20.7,00.0,30.3,22.9,14.4,0000.0,0001.81,0004.06,0001.40
2022-01-14 23:22:00,,0831.6,5.00,0.00,21.3,20.8,00.0,30.3,23.0,13.3,0000.0,0001.75,0004.16,0001.33
2022-01-14 23:23:00,,0831.6,5.00,0.00,21.3,20.8,00.0,30.3,23.0,13.0,0000.0,0001.69,0004.18,0001.26
2022-01-14 23:24:00,,0831.6,5.00,0.00,21.3,20.9,00.0,30.3,23.1,13.9,0000.0,0001.64,0004.19,0001.20
2022-01-14 23:25:00,,0831.7,5.00,0.00,21.3,20.9,00.0,30.3,23.1,13.9,0000.0,0001.59,0004.31,0001.16
2022-01-14 23:26:00,,0831.7,4.99,0.00,21.3,20.9,00.0,30.3,23.1,13.3,0000.0,0001.49,0004.75,0001.09
2022-01-14 23:27:00,,0831.7,5.00,0.00,21.4,21.0,00.0,30.3,23.2,13.0,0000.0,0001.45,0004.62,0001.04
2022-01-14 23:28:00,,0831.7,5.01,0.00,21.4,21.0,00.0,30.3,23.2,13.2,0000.0,0001.42,0004.64,0001.00
2022-01-14 23:29:00,,0831.7,5.00,0.00,21.4,21.0,00.0,30.3,23.2,13.2,0000.0,0001.36,0004.56,0000.95
2022-01-14 23:30:00,,0831.7,4.99,0.00,21.4,21.0,00.0,30.4,23.2,12.8,0000.0,0001.28,0004.49,0000.89
2022-01-14 23:31:00,,0831.8,5.00,0.00,21.4,21.0,00.0,30.4,23.2,12.6,0000.0,0001.18,0004.51,0000.82
2022-01-14 23:32:00,,0831.8,5.01,0.00,21.4,21.0,00.0,30.4,23.2,12.7,0000.0,0001.12,0003.87,0000.78
2022-01-14 23:33:00,,0831.8,5.00,0.00,21.4,21.0,00.0,30.4,23.2,12.6,0000.0,0001.09,0003.68,0000.78
2022-01-14 23:34:00,,0831.7,5.00,0.00,21.4,21.0,00.0,30.4,23.2,12.6,0000.0,0001.09,0003.65,0000.77
2022-01-14 23:35:00,,0831.8,4.99,0.00,21.4,21.0,00.0,30.4,23.2,12.6,0000.0,0001.05,0003.86,0000.74
2022-01-14 23:36:00,,0832.0,5.00,0.00,21.4,21.0,00.0,30.4,23.2,12.5,0000.0,0001.06,0003.82,0000.70
2022-01-14 23:37:00,,0831.9,5.00,0.00,21.4,21.0,00.0,30.4,23.2,12.6,0000.0,0001.06,0003.20,0000.68
2022-01-14 23:38:00,,0831.9,5.00,0.00,21.4,21.0,00.0,30.4,23.2,12.5,0000.0,0001.00,0003.18,0000.67
2022-01-14 23:39:00,,0832.0,5.00,0.00,21.4,21.0,00.0,30.4,23.2,12.5,0000.0,0000.96,0003.19,0000.64
2022-01-14 23:40:00,,0832.0,5.01,0.00,21.4,21.1,00.0,30.4,23.2,12.4,0000.0,0000.91,0004.54,0000.61
2022-01-14 23:41:00,,0832.0,5.00,0.00,21.5,21.7,00.0,30.5,23.4,12.1,0000.0,0000.87,0004.97,0000.58
2022-01-14 23:42:00,,0832.0,5.00,0.00,21.7,22.6,00.0,30.5,23.7,11.8,0000.0,0000.85,0004.75,0000.56
2022-01-14 23:43:00,,0832.0,5.00,0.00,21.8,22.8,00.0,30.6,23.9,11.8,0000.0,0000.82,0004.35,0000.53
2022-01-14 23:44:00,,0832.0,4.99,0.00,21.9,22.5,00.0,30.6,23.9,11.9,0000.0,0000.77,0004.28,0000.50
2022-01-14 23:45:00,,0832.0,5.01,0.00,21.9,22.3,00.0,30.6,23.8,11.7,0000.0,0000.73,0004.14,0000.48
2022-01-14 23:46:00,,0832.0,4.99,0.00,21.9,22.1,00.0,30.7,23.7,11.7,0000.0,0000.70,0003.75,0000.46
2022-01-14 23:47:00,,0832.1,5.01,0.00,21.9,21.9,00.0,30.7,23.6,12.0,0000.0,0000.65,0003.48,0000.45
2022-01-14 23:48:00,,0832.1,5.02,0.00,21.8,21.8,00.0,30.7,23.6,12.1,0000.0,0000.61,0003.46,0000.44
2022-01-14 23:49:00,,0832.1,5.00,0.00,21.8,21.7,00.0,30.7,23.6,12.1,0000.0,0000.59,0003.31,0000.43
2022-01-14 23:50:00,,0832.1,5.00,0.00,21.8,21.6,00.0,30.7,23.5,12.2,0000.0,0000.58,0003.29,0000.42
2022-01-14 23:51:00,,0832.1,5.01,0.00,21.8,21.5,00.0,30.7,23.5,12.0,0000.0,0000.58,0001.86,0000.42
2022-01-14 23:52:00,,0832.1,4.99,0.00,21.7,21.4,00.0,30.7,23.4,11.9,0000.0,0000.55,0001.07,0000.41
2022-01-14 23:53:00,,0832.1,4.99,0.00,21.7,21.3,00.0,30.7,23.4,11.9,0000.0,0000.53,0001.03,0000.40
2022-01-14 23:54:00,,0832.1,5.00,0.00,21.8,21.8,00.0,30.7,23.6,11.8,0000.0,0000.55,0001.07,0000.41
2022-01-14 23:55:00,,0832.2,4.99,0.00,21.9,22.6,00.0,30.8,23.9,11.7,0000.0,0000.56,0001.08,0000.41
2022-01-14 23:56:00,,0832.2,5.00,0.00,22.1,23.2,00.0,30.8,24.1,11.7,0000.0,0000.56,0001.08,0000.41
2022-01-14 23:57:00,,0832.2,4.99,0.00,22.2,23.0,00.0,30.9,24.2,11.5,0000.0,0000.57,0001.05,0000.42
2022-01-14 23:58:00,,0832.3,5.01,0.00,22.2,22.8,00.0,30.9,24.1,11.4,0000.0,0000.57,0001.04,0000.42
2022-01-14 23:59:00,,0832.3,5.00,0.00,22.2,22.5,00.0,30.9,24.0,11.4,0000.0,0000.58,0001.86,0000.42
